Gage, OK

3:29 AM CST on January 22, 2017 (GMT -0600)
Gage

Weather History for KGAG - March, 2014

Change the Weather History Date:

Monday, March 31, 2014

  Actual Average Record
Temperature  
Mean Temperature 66 °F -  
Max Temperature 78 °F 64 °F 91 °F (1978)
Min Temperature 51 °F 35 °F 15 °F (1987)
Growing Degree Days 16 (Base 50)    
Moisture  
Dew Point 21 °F    
Average Humidity 24    
Maximum Humidity 55    
Minimum Humidity 5    
Precipitation  
Precipitation 0.00 in - - ()
Sea Level Pressure  
Sea Level Pressure 29.74 in    
Wind  
Wind Speed 22 mph (WNW)    
Max Wind Speed 33 mph    
Max Gust Speed 45 mph    
Visibility 10 miles    
Events      
Averages and records for this station are not official NWS values.
T = Trace of Precipitation, MM = Missing Value Source: NWS Daily Summary

Daily Weather History Graph

Daily Weather History Graph

Search for Another Location

Airport or City:

Trip Planner

Search our weather history database for the weather conditions in past years. The results will help you decide how hot, cold, wet, or windy it might be!

Date:

Astronomy

Mar. 31, 2014 Rise Set
Actual Time 7:26 AM CDT 8:00 PM CDT
Civil Twilight 7:00 AM CDT 8:26 PM CDT
Nautical Twilight 6:30 AM CDT 8:56 PM CDT
Astronomical Twilight 5:59 AM CDT 9:28 PM CDT
Moon 7:53 AM CDT (3/31) 9:18 PM CDT (3/31)
Length of Visible Light 13h 25m
Length of Day
12h 33m
New Moon, 1% of the Moon is Illuminated
Mar 31
New Moon
Apr 7
First Quarter
Apr 15
Full
Apr 22
Last Quarter
Apr 29
New

Hourly Weather History & Observations

Time (CDT) Temp. Dew Point Humidity Pressure Visibility Wind Dir Wind Speed Gust Speed Precip Events Conditions
12:53 AM 66.0 °F 30.9 °F 27% 29.60 in 10.0 mi South 29.9 mph 44.9 mph N/A   Clear
1:53 AM 64.0 °F 33.1 °F 31% 29.59 in 10.0 mi South 33.4 mph 44.9 mph N/A   Clear
2:53 AM 63.0 °F 35.1 °F 35% 29.58 in 10.0 mi South 29.9 mph 41.4 mph N/A   Clear
3:53 AM 62.1 °F 37.0 °F 39% 29.57 in 10.0 mi South 26.5 mph 36.8 mph N/A   Clear
4:53 AM 61.0 °F 37.9 °F 42% 29.57 in 10.0 mi South 25.3 mph 33.4 mph N/A   Clear
5:53 AM 59.0 °F 39.0 °F 48% 29.59 in 10.0 mi SSW 19.6 mph - N/A   Clear
6:53 AM 57.9 °F 39.9 °F 51% 29.63 in 10.0 mi South 20.7 mph 29.9 mph N/A   Clear
7:53 AM 55.9 °F 39.9 °F 55% 29.67 in 10.0 mi SSW 17.3 mph - N/A   Clear
8:53 AM 62.1 °F 33.1 °F 34% 29.69 in 10.0 mi SW 13.8 mph - N/A   Clear
9:53 AM 68.0 °F 17.1 °F 14% 29.71 in 10.0 mi West 17.3 mph 25.3 mph N/A   Clear
10:53 AM 71.1 °F 7.0 °F 8% 29.73 in 10.0 mi WNW 25.3 mph 33.4 mph N/A   Clear
11:53 AM 73.0 °F 3.9 °F 7% 29.74 in 10.0 mi West 17.3 mph 28.8 mph N/A   Clear
12:53 PM 73.9 °F 6.1 °F 7% 29.74 in 10.0 mi WNW 12.7 mph 25.3 mph N/A   Clear
1:53 PM 75.0 °F 7.0 °F 7% 29.74 in 10.0 mi WNW 16.1 mph 27.6 mph N/A   Clear
2:53 PM 75.9 °F 7.0 °F 7% 29.73 in 10.0 mi NW 9.2 mph - N/A   Clear
3:53 PM 77.0 °F 7.0 °F 7% 29.74 in 10.0 mi WNW 12.7 mph - N/A   Clear
4:53 PM 78.1 °F 3.9 °F 6% 29.74 in 10.0 mi NW 12.7 mph 21.9 mph N/A   Clear
5:53 PM 77.0 °F 1.0 °F 5% 29.75 in 10.0 mi NW 11.5 mph - N/A   Clear
6:53 PM 75.0 °F 1.9 °F 6% 29.77 in 10.0 mi NW 10.4 mph - N/A   Clear
7:53 PM 64.9 °F 16.0 °F 15% 29.81 in 10.0 mi NE 8.1 mph - N/A   Clear
8:53 PM 59.0 °F 21.9 °F 24% 29.84 in 10.0 mi ENE 9.2 mph - N/A   Clear
9:53 PM 57.9 °F 24.1 °F 27% 29.90 in 10.0 mi NNE 21.9 mph 32.2 mph N/A   Clear
10:15 PM 57.2 °F 23.0 °F 27% 29.96 in 10.0 mi NNE 18.4 mph 27.6 mph N/A   Mostly Cloudy
10:53 PM 55.0 °F 24.1 °F 30% 29.94 in 10.0 mi NNE 18.4 mph - N/A   Overcast
11:22 PM 53.6 °F 24.8 °F 33% 30.00 in 10.0 mi NE 17.3 mph 26.5 mph N/A   Overcast
11:53 PM 51.1 °F 23.0 °F 33% 29.97 in 10.0 mi NE 13.8 mph - N/A   Clear